Date String (YYYY-MM-DD hh:mm:ss) UTC,Instrument flags,absolute air pressure of the measurement (hPa),sample flow rate (lpm),inlet stack bypass flow (lpm),air temperature of the measurement (°C),ambient temperature measured by the external sensor (°C),aerosol sample conditioner tube jacket temperature (°C),OPC LED temperature (°C),internal box temperature (°C),relative humidity of the measurement (%),span deviation,mass concentration of particles derived from Lorenz-Mie calculation of OPC scattering (μg/m³),mass concentration of particles derived from Lorenz-Mie calculation of OPC scattering (μg/m³),mass concentration of particles derived from Lorenz-Mie calculation of OPC scattering (μg/m³)
DateTimeUTC,F1_M11,P_M11,Q1_M11,Q2_M11,T1_M11,T2_M11,T3_M11,T4_M11,T5_M11,U1_M11,ZSPAN_M11,X0_M11,X2_M11,X1_M11
2024-04-05 00:00:00,SystemResetWarning,0822.4,5.00,000.00,024.9,023.6,000.0,033.3,026.6,009.1,0000.0,0008.27,0002.86,0001.98
2024-04-05 00:01:00,SystemResetWarning,0822.7,5.00,000.00,024.9,023.9,000.0,033.3,026.7,009.4,0000.0,0008.12,0002.83,0001.99
2024-04-05 00:02:00,SystemResetWarning,0822.6,5.00,000.00,025.0,024.1,000.0,033.3,026.8,008.9,0000.0,0008.04,0002.79,0002.00
2024-04-05 00:03:00,SystemResetWarning,0822.6,5.00,000.00,025.1,024.4,000.0,033.3,026.9,008.8,0000.0,0008.06,0002.73,0001.99
2024-04-05 00:04:00,SystemResetWarning,0822.9,5.00,000.00,025.1,024.5,000.0,033.3,027.0,008.5,0000.0,0008.17,0002.71,0001.98
2024-04-05 00:05:00,SystemResetWarning,0822.7,5.00,000.00,025.2,024.7,000.0,033.3,027.1,008.3,0000.0,0008.34,0002.72,0001.97
2024-04-05 00:06:00,SystemResetWarning,0822.7,5.00,000.00,025.3,024.8,000.0,033.4,027.2,008.6,0000.0,0008.46,0002.72,0001.97
2024-04-05 00:07:00,SystemResetWarning,0822.8,4.99,000.00,025.3,024.9,000.0,033.4,027.2,008.5,0000.0,0009.24,0002.77,0001.97
2024-04-05 00:08:00,SystemResetWarning,0822.5,4.98,000.00,025.3,024.2,000.0,033.5,026.8,008.9,0000.0,0009.31,0002.84,0001.97
2024-04-05 00:09:00,SystemResetWarning,0822.4,5.02,000.00,025.0,022.4,000.0,033.5,025.9,009.0,0000.0,0009.77,0002.85,0001.98
2024-04-05 00:10:00,SystemResetWarning,0822.4,5.01,000.00,024.8,022.5,000.0,033.5,025.8,009.1,0000.0,0010.55,0002.85,0001.97
2024-04-05 00:11:00,SystemResetWarning,0822.4,5.00,000.00,024.8,022.8,000.0,033.4,026.1,009.1,0000.0,0010.15,0002.85,0001.97
2024-04-05 00:12:00,SystemResetWarning,0822.4,5.00,000.00,024.8,023.1,000.0,033.3,026.3,008.9,0000.0,0009.91,0002.86,0001.99
2024-04-05 00:13:00,SystemResetWarning,0822.4,5.00,000.00,024.8,023.5,000.0,033.3,026.5,008.9,0000.0,0009.80,0002.90,0002.01
2024-04-05 00:14:00,SystemResetWarning,0822.5,4.99,000.00,024.9,023.8,000.0,033.3,026.6,009.0,0000.0,0009.85,0002.94,0002.01
2024-04-05 00:15:00,SystemResetWarning,0822.6,5.00,000.00,024.9,024.0,000.0,033.3,026.7,008.6,0000.0,0009.66,0002.95,0002.01
2024-04-05 00:16:00,SystemResetWarning,0822.5,5.00,000.00,025.0,024.3,000.0,033.3,026.9,008.7,0000.0,0010.01,0002.95,0002.01
2024-04-05 00:17:00,SystemResetWarning,0822.4,5.00,000.00,025.1,024.4,000.0,033.3,027.0,008.7,0000.0,0010.12,0002.96,0002.01
2024-04-05 00:18:00,SystemResetWarning,0822.4,4.98,000.00,025.2,024.6,000.0,033.3,027.1,008.9,0000.0,0008.52,0002.92,0002.00
2024-04-05 00:19:00,SystemResetWarning,0822.4,5.00,000.00,025.2,024.7,000.0,033.3,027.1,008.6,0000.0,0008.26,0002.88,0002.00
2024-04-05 00:20:00,SystemResetWarning,0822.5,5.00,000.00,025.3,024.9,000.0,033.4,027.2,008.7,0000.0,0007.91,0002.86,0001.98
2024-04-05 00:21:00,SystemResetWarning,0822.4,5.00,000.00,025.4,024.7,000.0,033.4,027.1,009.4,0000.0,0007.05,0002.85,0001.97
2024-04-05 00:22:00,SystemResetWarning,0822.4,4.99,000.00,025.1,022.7,000.0,033.5,026.0,010.1,0000.0,0006.91,0002.82,0001.97
2024-04-05 00:23:00,SystemResetWarning,0822.4,5.01,000.00,024.6,021.3,000.0,033.5,025.1,010.5,0000.0,0007.08,0002.83,0001.96
2024-04-05 00:24:00,SystemResetWarning,0822.4,5.02,000.00,024.4,021.6,000.0,033.4,025.2,010.9,0000.0,0007.16,0002.81,0001.94
2024-04-05 00:25:00,SystemResetWarning,0822.4,5.00,000.00,024.4,022.0,000.0,033.3,025.5,011.0,0000.0,0007.20,0002.80,0001.95
2024-04-05 00:26:00,SystemResetWarning,0822.4,5.00,000.00,024.4,022.4,000.0,033.1,025.8,010.8,0000.0,0007.44,0002.83,0001.98
2024-04-05 00:27:00,SystemResetWarning,0822.4,5.00,000.00,024.5,022.9,000.0,033.1,026.1,010.7,0000.0,0007.56,0002.83,0001.98
2024-04-05 00:28:00,SystemResetWarning,0822.4,5.01,000.00,024.5,023.3,000.0,033.0,026.2,010.5,0000.0,0007.45,0002.87,0001.99
2024-04-05 00:29:00,SystemResetWarning,0822.4,5.00,000.00,024.6,023.6,000.0,033.0,026.4,010.7,0000.0,0007.67,0002.86,0001.99
2024-04-05 00:30:00,SystemResetWarning,0822.4,4.99,000.00,024.7,023.9,000.0,033.0,026.5,011.2,0000.0,0007.67,0002.85,0001.99
2024-04-05 00:31:00,SystemResetWarning,0822.4,5.00,000.00,024.7,024.1,000.0,033.0,026.6,011.3,0000.0,0007.53,0002.88,0002.01
2024-04-05 00:32:00,SystemResetWarning,0822.4,5.00,000.00,024.8,024.2,000.0,033.0,026.7,010.9,0000.0,0007.83,0002.89,0002.01
2024-04-05 00:33:00,SystemResetWarning,0822.4,5.00,000.00,024.9,024.4,000.0,033.1,026.8,010.6,0000.0,0009.21,0002.91,0002.00
2024-04-05 00:34:00,SystemResetWarning,0822.4,5.01,000.00,025.0,024.5,000.0,033.1,026.9,010.7,0000.0,0010.12,0002.96,0001.99
2024-04-05 00:35:00,SystemResetWarning,0822.4,5.00,000.00,025.1,024.7,000.0,033.1,027.0,010.6,0000.0,0010.59,0003.03,0001.97
2024-04-05 00:36:00,SystemResetWarning,0822.4,5.00,000.00,025.1,024.8,000.0,033.2,027.1,010.8,0000.0,0010.79,0003.02,0001.95
2024-04-05 00:37:00,SystemResetWarning,0822.4,5.00,000.00,025.2,024.9,000.0,033.2,027.1,011.1,0000.0,0011.19,0003.02,0001.93
2024-04-05 00:38:00,SystemResetWarning,0822.4,5.00,000.00,025.3,025.0,000.0,033.3,027.2,011.3,0000.0,0011.28,0003.01,0001.92
2024-04-05 00:39:00,SystemResetWarning,0822.4,4.98,000.00,025.3,024.1,000.0,033.4,026.7,011.1,0000.0,0012.26,0002.98,0001.89
2024-04-05 00:40:00,SystemResetWarning,0822.3,5.01,000.00,024.8,021.8,000.0,033.4,025.4,011.1,0000.0,0012.76,0003.07,0001.88
2024-04-05 00:41:00,SystemResetWarning,0822.2,5.00,000.00,024.4,021.3,000.0,033.4,025.0,011.0,0000.0,0013.14,0003.12,0001.86
2024-04-05 00:42:00,SystemResetWarning,0822.2,5.01,000.00,024.3,021.7,000.0,033.2,025.2,010.9,0000.0,0013.42,0003.12,0001.85
2024-04-05 00:43:00,SystemResetWarning,0822.3,5.00,000.00,024.3,022.1,000.0,033.1,025.5,011.1,0000.0,0014.48,0003.15,0001.83
2024-04-05 00:44:00,SystemResetWarning,0822.2,5.00,000.00,024.3,022.6,000.0,033.0,025.8,011.3,0000.0,0014.47,0003.13,0001.83
2024-04-05 00:45:00,SystemResetWarning,0822.2,5.00,000.00,024.4,023.0,000.0,033.0,026.0,011.3,0000.0,0015.05,0003.10,0001.82
2024-04-05 00:46:00,SystemResetWarning,0822.2,5.01,000.00,024.4,023.3,000.0,032.9,026.2,011.2,0000.0,0014.80,0003.07,0001.83
2024-04-05 00:47:00,SystemResetWarning,0822.2,4.99,000.00,024.5,023.6,000.0,032.9,026.4,011.1,0000.0,0015.87,0003.07,0001.83
2024-04-05 00:48:00,SystemResetWarning,0822.2,4.99,000.00,024.6,023.9,000.0,032.9,026.4,010.8,0000.0,0016.89,0003.09,0001.81
2024-04-05 00:49:00,SystemResetWarning,0822.2,5.00,000.00,024.7,024.1,000.0,032.9,026.6,010.9,0000.0,0016.71,0003.11,0001.81
2024-04-05 00:50:00,SystemResetWarning,0822.2,5.00,000.00,024.8,024.3,000.0,033.0,026.7,010.8,0000.0,0015.61,0003.08,0001.83
2024-04-05 00:51:00,SystemResetWarning,0822.2,5.00,000.00,024.8,024.4,000.0,033.0,026.8,010.8,0000.0,0015.14,0002.99,0001.82
2024-04-05 00:52:00,SystemResetWarning,0822.2,5.00,000.00,024.9,024.6,000.0,033.0,026.8,010.5,0000.0,0014.96,0002.92,0001.82
2024-04-05 00:53:00,SystemResetWarning,0822.2,5.00,000.00,025.0,024.7,000.0,033.1,026.9,010.5,0000.0,0015.37,0002.96,0001.83
2024-04-05 00:54:00,SystemResetWarning,0822.2,5.01,000.00,025.1,024.8,000.0,033.1,027.0,010.4,0000.0,0014.62,0002.93,0001.85
2024-04-05 00:55:00,SystemResetWarning,0822.2,5.00,000.00,025.2,024.9,000.0,033.2,027.1,010.2,0000.0,0013.54,0002.93,0001.86
2024-04-05 00:56:00,SystemResetWarning,0822.2,5.00,000.00,025.2,025.0,000.0,033.2,027.2,010.3,0000.0,0011.83,0002.91,0001.87
2024-04-05 00:57:00,SystemResetWarning,0822.2,5.00,000.00,025.3,025.0,000.0,033.3,027.2,010.4,0000.0,0012.31,0002.90,0001.88
2024-04-05 00:58:00,SystemResetWarning,0822.1,4.99,000.00,025.4,025.1,000.0,033.3,027.3,010.4,0000.0,0011.69,0002.93,0001.89
2024-04-05 00:59:00,SystemResetWarning,0822.1,4.99,000.00,025.4,025.2,000.0,033.4,027.3,010.2,0000.0,0011.04,0002.88,0001.89
